Time,TemperatureF,DewpointF,PressureIn,WindDirection,WindDirectionDegrees,WindSpeedMPH,WindSpeedGustMPH,Humidity,HourlyPrecipIn,Conditions,Clouds,dailyrainin,SolarRadiationWatts/m^2,SoftwareType,DateUTC
2013-06-09 00:00:00,69.0,14.0,-100.00,North,6,9.0,18.0,12,0.00,,,0.00,0.000000,,2013-06-09 07:00:00,
2013-06-09 00:22:00,69.0,14.0,-100.00,North,6,9.0,18.0,12,0.00,,,0.00,0.000000,,2013-06-09 07:22:00,
2013-06-09 00:32:00,69.0,14.0,-100.00,North,6,9.0,18.0,12,0.00,,,0.00,0.000000,,2013-06-09 07:32:00,
2013-06-09 00:42:00,69.0,14.0,-100.00,North,6,9.0,18.0,12,0.00,,,0.00,0.000000,,2013-06-09 07:42:00,
2013-06-09 00:52:00,69.0,14.0,-100.00,North,6,9.0,18.0,12,0.00,,,0.00,0.000000,,2013-06-09 07:52:00,
2013-06-09 01:00:00,68.0,14.0,-100.00,NNE,13,8.0,15.0,12,0.00,,,0.00,0.000000,,2013-06-09 08:00:00,
2013-06-09 01:22:00,68.0,14.0,-100.00,NNE,13,8.0,15.0,12,0.00,,,0.00,0.000000,,2013-06-09 08:22:00,
2013-06-09 01:32:00,68.0,14.0,-100.00,NNE,13,8.0,15.0,12,0.00,,,0.00,0.000000,,2013-06-09 08:32:00,
2013-06-09 01:42:00,68.0,14.0,-100.00,NNE,13,8.0,15.0,12,0.00,,,0.00,0.000000,,2013-06-09 08:42:00,
2013-06-09 01:53:00,68.0,14.0,-100.00,NNE,13,8.0,15.0,12,0.00,,,0.00,0.000000,,2013-06-09 08:53:00,
2013-06-09 02:00:00,63.0,10.0,-100.00,ENE,59,6.0,13.0,12,0.00,,,0.00,0.000000,,2013-06-09 09:00:00,
2013-06-09 02:22:00,63.0,10.0,-100.00,ENE,59,6.0,13.0,12,0.00,,,0.00,0.000000,,2013-06-09 09:22:00,
2013-06-09 02:33:00,63.0,10.0,-100.00,ENE,59,6.0,13.0,12,0.00,,,0.00,0.000000,,2013-06-09 09:33:00,
2013-06-09 02:43:00,63.0,10.0,-100.00,ENE,59,6.0,13.0,12,0.00,,,0.00,0.000000,,2013-06-09 09:43:00,
2013-06-09 02:52:00,63.0,10.0,-100.00,ENE,59,6.0,13.0,12,0.00,,,0.00,0.000000,,2013-06-09 09:52:00,
2013-06-09 03:00:00,63.0,11.0,-100.00,NE,55,5.0,9.0,13,0.00,,,0.00,0.000000,,2013-06-09 10:00:00,
2013-06-09 03:23:00,63.0,11.0,-100.00,NE,55,5.0,9.0,13,0.00,,,0.00,0.000000,,2013-06-09 10:23:00,
2013-06-09 03:32:00,63.0,11.0,-100.00,NE,55,5.0,9.0,13,0.00,,,0.00,0.000000,,2013-06-09 10:32:00,
2013-06-09 03:43:00,63.0,11.0,-100.00,NE,55,5.0,9.0,13,0.00,,,0.00,0.000000,,2013-06-09 10:43:00,
2013-06-09 03:52:00,63.0,11.0,-100.00,NE,55,5.0,9.0,13,0.00,,,0.00,0.000000,,2013-06-09 10:52:00,
2013-06-09 04:00:00,64.0,10.0,-100.00,NE,39,4.0,7.0,12,0.00,,,0.00,0.000000,,2013-06-09 11:00:00,
2013-06-09 04:22:00,64.0,10.0,-100.00,NE,39,4.0,7.0,12,0.00,,,0.00,0.000000,,2013-06-09 11:22:00,
2013-06-09 04:32:00,64.0,10.0,-100.00,NE,39,4.0,7.0,12,0.00,,,0.00,0.000000,,2013-06-09 11:32:00,
2013-06-09 04:42:00,64.0,10.0,-100.00,NE,39,4.0,7.0,12,0.00,,,0.00,0.000000,,2013-06-09 11:42:00,
2013-06-09 04:52:00,64.0,10.0,-100.00,NE,39,4.0,7.0,12,0.00,,,0.00,0.000000,,2013-06-09 11:52:00,
2013-06-09 05:00:00,64.0,14.0,-100.00,NNE,27,5.0,8.0,14,0.00,,,0.00,0.000000,,2013-06-09 12:00:00,
2013-06-09 05:22:00,64.0,14.0,-100.00,NNE,27,5.0,8.0,14,0.00,,,0.00,0.000000,,2013-06-09 12:22:00,
2013-06-09 05:32:00,64.0,14.0,-100.00,NNE,27,5.0,8.0,14,0.00,,,0.00,0.000000,,2013-06-09 12:32:00,
2013-06-09 05:42:00,64.0,14.0,-100.00,NNE,27,5.0,8.0,14,0.00,,,0.00,0.000000,,2013-06-09 12:42:00,
2013-06-09 05:52:00,64.0,14.0,-100.00,NNE,27,5.0,8.0,14,0.00,,,0.00,0.000000,,2013-06-09 12:52:00,
2013-06-09 06:00:00,65.0,13.0,-100.00,NNE,31,3.0,7.0,13,0.00,,,-99.99,0.000000,,2013-06-09 13:00:00,
2013-06-09 06:22:00,65.0,13.0,-100.00,NNE,31,3.0,7.0,13,0.00,,,-99.99,0.000000,,2013-06-09 13:22:00,
2013-06-09 06:32:00,65.0,13.0,-100.00,NNE,31,3.0,7.0,13,0.00,,,-99.99,0.000000,,2013-06-09 13:32:00,
2013-06-09 06:42:00,65.0,13.0,-100.00,NNE,31,3.0,7.0,13,0.00,,,-99.99,0.000000,,2013-06-09 13:42:00,
2013-06-09 06:52:00,65.0,13.0,-100.00,NNE,31,3.0,7.0,13,0.00,,,-99.99,0.000000,,2013-06-09 13:52:00,
2013-06-09 07:00:00,72.0,15.0,-100.00,North,352,5.0,9.0,11,0.00,,,-99.99,15.000000,,2013-06-09 14:00:00,
2013-06-09 07:22:00,72.0,15.0,-100.00,North,352,5.0,9.0,11,0.00,,,-99.99,15.000000,,2013-06-09 14:22:00,
2013-06-09 07:32:00,72.0,15.0,-100.00,North,352,5.0,9.0,11,0.00,,,-99.99,15.000000,,2013-06-09 14:32:00,
2013-06-09 07:43:00,72.0,15.0,-100.00,North,352,5.0,9.0,11,0.00,,,-99.99,15.000000,,2013-06-09 14:43:00,
2013-06-09 07:52:00,72.0,15.0,-100.00,North,352,5.0,9.0,11,0.00,,,-99.99,15.000000,,2013-06-09 14:52:00,
2013-06-09 08:00:00,80.0,16.0,-100.00,NNW,347,4.0,8.0,9,0.00,,,0.00,90.000000,,2013-06-09 15:00:00,
2013-06-09 08:22:00,80.0,16.0,-100.00,NNW,347,4.0,8.0,9,0.00,,,0.00,90.000000,,2013-06-09 15:22:00,
2013-06-09 08:33:00,80.0,16.0,-100.00,NNW,347,4.0,8.0,9,0.00,,,0.00,90.000000,,2013-06-09 15:33:00,
2013-06-09 08:43:00,80.0,16.0,-100.00,NNW,347,4.0,8.0,9,0.00,,,0.00,90.000000,,2013-06-09 15:43:00,
2013-06-09 08:53:00,80.0,16.0,-100.00,NNW,347,4.0,8.0,9,0.00,,,0.00,90.000000,,2013-06-09 15:53:00,
2013-06-09 09:00:00,83.0,16.0,-100.00,South,175,4.0,9.0,8,0.00,,,0.00,613.000000,,2013-06-09 16:00:00,
2013-06-09 09:23:00,83.0,16.0,-100.00,South,175,4.0,9.0,8,0.00,,,0.00,613.000000,,2013-06-09 16:23:00,
2013-06-09 09:33:00,83.0,16.0,-100.00,South,175,4.0,9.0,8,0.00,,,0.00,613.000000,,2013-06-09 16:33:00,
2013-06-09 09:42:00,83.0,16.0,-100.00,South,175,4.0,9.0,8,0.00,,,0.00,613.000000,,2013-06-09 16:42:00,
2013-06-09 09:53:00,83.0,16.0,-100.00,South,175,4.0,9.0,8,0.00,,,0.00,613.000000,,2013-06-09 16:53:00,
2013-06-09 10:22:00,84.0,13.0,-100.00,ENE,68,3.0,8.0,7,0.00,,,0.00,859.000000,,2013-06-09 17:22:00,
2013-06-09 10:32:00,84.0,13.0,-100.00,ENE,68,3.0,8.0,7,0.00,,,0.00,859.000000,,2013-06-09 17:32:00,
2013-06-09 10:42:00,84.0,13.0,-100.00,ENE,68,3.0,8.0,7,0.00,,,0.00,859.000000,,2013-06-09 17:42:00,
2013-06-09 10:52:00,84.0,13.0,-100.00,ENE,68,3.0,8.0,7,0.00,,,0.00,859.000000,,2013-06-09 17:52:00,
2013-06-09 11:00:00,88.0,13.0,-100.00,NE,40,4.0,10.0,6,0.00,,,0.00,1071.000000,,2013-06-09 18:00:00,
2013-06-09 11:22:00,88.0,13.0,-100.00,NE,40,4.0,10.0,6,0.00,,,0.00,1071.000000,,2013-06-09 18:22:00,
2013-06-09 11:33:00,88.0,13.0,-100.00,NE,40,4.0,10.0,6,0.00,,,0.00,1071.000000,,2013-06-09 18:33:00,
2013-06-09 11:42:00,88.0,13.0,-100.00,NE,40,4.0,10.0,6,0.00,,,0.00,1071.000000,,2013-06-09 18:42:00,
2013-06-09 11:52:00,88.0,13.0,-100.00,NE,40,4.0,10.0,6,0.00,,,0.00,1071.000000,,2013-06-09 18:52:00,
2013-06-09 12:00:00,87.0,12.0,-100.00,North,350,4.0,10.0,6,0.00,,,0.00,1233.000000,,2013-06-09 19:00:00,
2013-06-09 12:22:00,87.0,12.0,-100.00,North,350,4.0,10.0,6,0.00,,,0.00,1233.000000,,2013-06-09 19:22:00,
2013-06-09 12:32:00,87.0,12.0,-100.00,North,350,4.0,10.0,6,0.00,,,0.00,1233.000000,,2013-06-09 19:32:00,
2013-06-09 12:42:00,87.0,12.0,-100.00,North,350,4.0,10.0,6,0.00,,,0.00,1233.000000,,2013-06-09 19:42:00,
2013-06-09 12:52:00,87.0,12.0,-100.00,North,350,4.0,10.0,6,0.00,,,0.00,1233.000000,,2013-06-09 19:52:00,
2013-06-09 13:00:00,92.0,11.0,-100.00,NW,305,3.0,12.0,5,0.00,,,0.00,1323.000000,,2013-06-09 20:00:00,
2013-06-09 13:22:00,92.0,11.0,-100.00,NW,305,3.0,12.0,5,0.00,,,0.00,1323.000000,,2013-06-09 20:22:00,
2013-06-09 13:32:00,92.0,11.0,-100.00,NW,305,3.0,12.0,5,0.00,,,0.00,1323.000000,,2013-06-09 20:32:00,
2013-06-09 13:42:00,92.0,11.0,-100.00,NW,305,3.0,12.0,5,0.00,,,0.00,1323.000000,,2013-06-09 20:42:00,
2013-06-09 13:52:00,92.0,11.0,-100.00,NW,305,3.0,12.0,5,0.00,,,0.00,1323.000000,,2013-06-09 20:52:00,
2013-06-09 14:00:00,94.0,13.0,-100.00,SE,126,5.0,15.0,5,0.00,,,0.00,1348.000000,,2013-06-09 21:00:00,
2013-06-09 14:22:00,94.0,13.0,-100.00,SE,126,5.0,15.0,5,0.00,,,0.00,1348.000000,,2013-06-09 21:22:00,
2013-06-09 14:33:00,94.0,13.0,-100.00,SE,126,5.0,15.0,5,0.00,,,0.00,1348.000000,,2013-06-09 21:33:00,
2013-06-09 14:43:00,94.0,13.0,-100.00,SE,126,5.0,15.0,5,0.00,,,0.00,1348.000000,,2013-06-09 21:43:00,
2013-06-09 14:53:00,94.0,13.0,-100.00,SE,126,5.0,15.0,5,0.00,,,0.00,1348.000000,,2013-06-09 21:53:00,
2013-06-09 15:00:00,94.0,13.0,-100.00,WNW,282,6.0,14.0,5,0.00,,,0.00,1307.000000,,2013-06-09 22:00:00,
2013-06-09 15:23:00,94.0,13.0,-100.00,WNW,282,6.0,14.0,5,0.00,,,0.00,1307.000000,,2013-06-09 22:23:00,
2013-06-09 15:33:00,94.0,13.0,-100.00,WNW,282,6.0,14.0,5,0.00,,,0.00,1307.000000,,2013-06-09 22:33:00,
2013-06-09 15:42:00,94.0,13.0,-100.00,WNW,282,6.0,14.0,5,0.00,,,0.00,1307.000000,,2013-06-09 22:42:00,
2013-06-09 15:52:00,94.0,13.0,-100.00,WNW,282,6.0,14.0,5,0.00,,,0.00,1307.000000,,2013-06-09 22:52:00,
2013-06-09 16:00:00,95.0,14.0,-100.00,NE,47,5.0,13.0,5,0.00,,,0.00,1192.000000,,2013-06-09 23:00:00,
2013-06-09 16:22:00,95.0,14.0,-100.00,NE,47,5.0,13.0,5,0.00,,,0.00,1192.000000,,2013-06-09 23:22:00,
2013-06-09 16:32:00,95.0,14.0,-100.00,NE,47,5.0,13.0,5,0.00,,,0.00,1192.000000,,2013-06-09 23:32:00,
2013-06-09 16:43:00,95.0,14.0,-100.00,NE,47,5.0,13.0,5,0.00,,,0.00,1192.000000,,2013-06-09 23:43:00,
2013-06-09 16:52:00,95.0,14.0,-100.00,NE,47,5.0,13.0,5,0.00,,,0.00,1192.000000,,2013-06-09 23:52:00,
2013-06-09 17:00:00,95.0,14.0,-100.00,NE,46,4.0,10.0,5,0.00,,,0.00,1015.000000,,2013-06-10 00:00:00,
2013-06-09 17:22:00,95.0,14.0,-100.00,NE,46,4.0,10.0,5,0.00,,,0.00,1015.000000,,2013-06-10 00:22:00,
2013-06-09 17:32:00,95.0,14.0,-100.00,NE,46,4.0,10.0,5,0.00,,,0.00,1015.000000,,2013-06-10 00:32:00,
2013-06-09 17:42:00,95.0,14.0,-100.00,NE,46,4.0,10.0,5,0.00,,,0.00,1015.000000,,2013-06-10 00:42:00,
2013-06-09 17:52:00,95.0,14.0,-100.00,NE,46,4.0,10.0,5,0.00,,,0.00,1015.000000,,2013-06-10 00:52:00,
2013-06-09 18:00:00,89.0,17.0,-100.00,West,265,5.0,12.0,7,0.00,,,0.00,700.000000,,2013-06-10 01:00:00,
2013-06-09 18:22:00,89.0,17.0,-100.00,West,265,5.0,12.0,7,0.00,,,0.00,700.000000,,2013-06-10 01:22:00,
2013-06-09 18:32:00,89.0,17.0,-100.00,West,265,5.0,12.0,7,0.00,,,0.00,700.000000,,2013-06-10 01:32:00,
2013-06-09 18:43:00,89.0,17.0,-100.00,West,265,5.0,12.0,7,0.00,,,0.00,700.000000,,2013-06-10 01:43:00,
2013-06-09 18:52:00,89.0,17.0,-100.00,West,265,5.0,12.0,7,0.00,,,0.00,700.000000,,2013-06-10 01:52:00,
2013-06-09 19:00:00,90.0,18.0,-100.00,SW,225,2.0,10.0,7,0.00,,,0.00,379.000000,,2013-06-10 02:00:00,
2013-06-09 19:22:00,90.0,18.0,-100.00,SW,225,2.0,10.0,7,0.00,,,0.00,379.000000,,2013-06-10 02:22:00,
2013-06-09 19:32:00,90.0,18.0,-100.00,SW,225,2.0,10.0,7,0.00,,,0.00,379.000000,,2013-06-10 02:32:00,
2013-06-09 19:42:00,90.0,18.0,-100.00,SW,225,2.0,10.0,7,0.00,,,0.00,379.000000,,2013-06-10 02:42:00,
2013-06-09 19:52:00,90.0,18.0,-100.00,SW,225,2.0,10.0,7,0.00,,,0.00,379.000000,,2013-06-10 02:52:00,
2013-06-09 20:00:00,80.0,16.0,-100.00,NW,310,7.0,14.0,9,0.00,,,0.00,57.000000,,2013-06-10 03:00:00,
2013-06-09 20:22:00,80.0,16.0,-100.00,NW,310,7.0,14.0,9,0.00,,,0.00,57.000000,,2013-06-10 03:22:00,
2013-06-09 20:33:00,80.0,16.0,-100.00,NW,310,7.0,14.0,9,0.00,,,0.00,57.000000,,2013-06-10 03:33:00,
2013-06-09 20:43:00,80.0,16.0,-100.00,NW,310,7.0,14.0,9,0.00,,,0.00,57.000000,,2013-06-10 03:43:00,
2013-06-09 20:53:00,80.0,16.0,-100.00,NW,310,7.0,14.0,9,0.00,,,0.00,57.000000,,2013-06-10 03:53:00,
2013-06-09 21:00:00,77.0,16.0,-100.00,NW,305,10.0,18.0,10,0.00,,,0.00,0.000000,,2013-06-10 04:00:00,
2013-06-09 21:23:00,77.0,16.0,-100.00,NW,305,10.0,18.0,10,0.00,,,0.00,0.000000,,2013-06-10 04:23:00,
2013-06-09 21:33:00,77.0,16.0,-100.00,NW,305,10.0,18.0,10,0.00,,,0.00,0.000000,,2013-06-10 04:33:00,
2013-06-09 21:42:00,77.0,16.0,-100.00,NW,305,10.0,18.0,10,0.00,,,0.00,0.000000,,2013-06-10 04:42:00,
2013-06-09 21:52:00,77.0,16.0,-100.00,NW,305,10.0,18.0,10,0.00,,,0.00,0.000000,,2013-06-10 04:52:00,
2013-06-09 22:00:00,76.0,16.0,-100.00,NNW,334,10.0,19.0,10,0.00,,,0.00,0.000000,,2013-06-10 05:00:00,
2013-06-09 22:22:00,76.0,16.0,-100.00,NNW,334,10.0,19.0,10,0.00,,,0.00,0.000000,,2013-06-10 05:22:00,
2013-06-09 22:32:00,76.0,16.0,-100.00,NNW,334,10.0,19.0,10,0.00,,,0.00,0.000000,,2013-06-10 05:32:00,
2013-06-09 22:42:00,76.0,16.0,-100.00,NNW,334,10.0,19.0,10,0.00,,,0.00,0.000000,,2013-06-10 05:42:00,
2013-06-09 22:52:00,76.0,16.0,-100.00,NNW,334,10.0,19.0,10,0.00,,,0.00,0.000000,,2013-06-10 05:52:00,
2013-06-09 23:00:00,73.0,13.0,-100.00,NW,310,11.0,25.0,10,0.00,,,0.00,0.000000,,2013-06-10 06:00:00,
2013-06-09 23:22:00,73.0,13.0,-100.00,NW,310,11.0,25.0,10,0.00,,,0.00,0.000000,,2013-06-10 06:22:00,
2013-06-09 23:32:00,73.0,13.0,-100.00,NW,310,11.0,25.0,10,0.00,,,0.00,0.000000,,2013-06-10 06:32:00,
2013-06-09 23:42:00,73.0,13.0,-100.00,NW,310,11.0,25.0,10,0.00,,,0.00,0.000000,,2013-06-10 06:42:00,
2013-06-09 23:52:00,73.0,13.0,-100.00,NW,310,11.0,25.0,10,0.00,,,0.00,0.000000,,2013-06-10 06:52:00,